Date String (YYYY-MM-DD hh:mm:ss) UTC,Instrument flags,Ambient pressure (hPa),Sample flow (lpm),Bypass flow (lpm),Sample temperature (°C),Ambient temperature (°C),ASC tube jacket temperature (°C),LED temperature (°C),Box temperature (°C),Sample RH (%),Span deviation,Mass concentration (μg/m³),Mass concentration (μg/m³),Mass concentration (μg/m³)
DateTimeUTC,F1_M11,P_M11,Q1_M11,Q2_M11,T1_M11,T2_M11,T3_M11,T4_M11,T5_M11,U1_M11,ZSPAN_M11,X0_M11,X2_M11,X1_M11
2022-10-20 22:00:00,,0823.0,5.02,0.00,29.5,28.0,00.0,38.2,31.3,06.3,0000.0,0007.91,0003.26,0002.98
2022-10-20 22:01:00,,0823.0,4.99,0.00,29.6,28.2,00.0,38.2,31.4,06.2,0000.0,0007.99,0003.39,0003.20
2022-10-20 22:02:00,,0822.9,4.99,0.00,29.6,28.4,00.0,38.3,31.4,06.3,0000.0,0007.88,0003.45,0003.27
2022-10-20 22:03:00,,0822.9,5.03,0.00,29.6,28.5,00.0,38.3,31.5,06.2,0000.0,0007.77,0003.52,0003.33
2022-10-20 22:04:00,,0822.9,5.01,0.00,29.7,28.2,00.0,38.3,31.5,06.2,0000.0,0008.01,0003.61,0003.39
2022-10-20 22:05:00,,0822.9,4.99,0.00,29.6,26.8,00.0,38.3,31.4,06.1,0000.0,0008.04,0003.69,0003.48
2022-10-20 22:06:00,,0822.8,5.02,0.00,29.6,26.1,00.0,38.3,31.3,06.2,0000.0,0008.27,0003.82,0003.59
2022-10-20 22:07:00,,0822.9,4.99,0.00,29.5,26.3,00.0,38.2,31.3,06.3,0000.0,0007.59,0003.86,0003.63
2022-10-20 22:08:00,,0822.8,5.00,0.00,29.5,26.6,00.0,38.2,31.1,06.3,0000.0,0007.38,0003.83,0003.61
2022-10-20 22:09:00,,0822.8,4.97,0.00,29.4,27.0,00.0,38.2,31.1,06.3,0000.0,0006.59,0003.78,0003.57
2022-10-20 22:10:00,,0822.8,5.00,0.00,29.4,27.3,00.0,38.2,31.1,06.4,0000.0,0007.09,0003.54,0003.31
2022-10-20 22:11:00,,0822.8,5.01,0.00,29.4,27.6,00.0,38.2,31.2,06.4,0000.0,0007.11,0003.39,0003.13
2022-10-20 22:12:00,,0822.8,4.98,0.00,29.5,27.8,00.0,38.2,31.3,06.4,0000.0,0007.00,0003.33,0003.01
2022-10-20 22:13:00,,0822.8,4.98,0.00,29.5,28.1,00.0,38.2,31.4,06.2,0000.0,0007.15,0003.34,0002.97
2022-10-20 22:14:00,,0822.8,5.03,0.00,29.6,28.2,00.0,38.2,31.4,06.4,0000.0,0008.30,0003.34,0002.93
2022-10-20 22:15:00,,0822.8,5.00,0.00,29.6,28.4,00.0,38.3,31.5,06.3,0000.0,0009.79,0003.39,0002.88
2022-10-20 22:16:00,,0822.7,4.99,0.00,29.6,27.8,00.0,38.3,31.5,06.3,0000.0,0009.87,0003.34,0002.74
2022-10-20 22:17:00,,0822.7,5.01,0.00,29.6,26.4,00.0,38.2,31.3,06.3,0000.0,0009.67,0003.26,0002.59
2022-10-20 22:18:00,,0822.7,5.02,0.00,29.5,26.0,00.0,38.2,31.3,06.3,0000.0,0009.66,0003.18,0002.42
2022-10-20 22:19:00,,0822.7,4.96,0.00,29.5,26.3,00.0,38.2,31.2,06.1,0000.0,0009.88,0003.11,0002.30
2022-10-20 22:20:00,,0822.7,5.00,0.00,29.4,26.6,00.0,38.1,31.0,06.3,0000.0,0009.75,0002.89,0002.07
2022-10-20 22:21:00,,0822.7,5.01,0.00,29.4,26.9,00.0,38.1,31.1,06.2,0000.0,0008.87,0002.69,0001.93
2022-10-20 22:22:00,,0822.7,4.98,0.00,29.4,27.3,00.0,38.1,31.1,06.3,0000.0,0008.62,0002.57,0001.83
2022-10-20 22:23:00,,0822.7,4.99,0.00,29.4,27.5,00.0,38.1,31.2,06.4,0000.0,0008.52,0002.39,0001.66
2022-10-20 22:24:00,,0822.7,4.99,0.00,29.4,27.8,00.0,38.2,31.2,06.5,0000.0,0008.41,0002.20,0001.51
2022-10-20 22:25:00,,0822.7,4.99,0.00,29.5,28.0,00.0,38.2,31.3,06.5,0000.0,0007.24,0002.03,0001.40
2022-10-20 22:26:00,,0822.7,5.02,0.00,29.5,28.2,00.0,38.2,31.4,06.6,0000.0,0005.01,0001.76,0001.32
2022-10-20 22:27:00,,0822.7,5.02,0.00,29.5,28.3,00.0,38.2,31.4,06.4,0000.0,0004.61,0001.62,0001.25
2022-10-20 22:28:00,,0822.7,4.98,0.00,29.6,28.5,00.0,38.2,31.5,06.5,0000.0,0004.41,0001.51,0001.17
2022-10-20 22:29:00,,0822.6,5.00,0.00,29.6,28.3,00.0,38.3,31.5,06.3,0000.0,0004.40,0001.51,0001.15
2022-10-20 22:30:00,,0822.6,4.96,0.00,29.6,26.9,00.0,38.2,31.4,06.3,0000.0,0003.88,0001.46,0001.08
2022-10-20 22:31:00,,0822.6,5.01,0.00,29.6,26.1,00.0,38.2,31.3,06.3,0000.0,0003.68,0001.40,0001.03
2022-10-20 22:32:00,,0822.6,5.02,0.00,29.5,26.3,00.0,38.2,31.3,06.4,0000.0,0004.19,0001.36,0000.99
2022-10-20 22:33:00,,0822.6,5.00,0.00,29.4,26.5,00.0,38.1,31.1,06.4,0000.0,0004.29,0001.35,0000.95
2022-10-20 22:34:00,,0822.6,4.99,0.00,29.4,26.9,00.0,38.1,31.1,06.4,0000.0,0004.75,0001.36,0000.94
2022-10-20 22:35:00,,0822.6,4.99,0.00,29.4,27.2,00.0,38.1,31.1,06.3,0000.0,0005.67,0001.36,0000.93
2022-10-20 22:36:00,,0822.6,5.00,0.00,29.4,27.5,00.0,38.1,31.2,06.4,0000.0,0005.78,0001.38,0000.93
2022-10-20 22:37:00,,0822.6,4.98,0.00,29.4,27.7,00.0,38.1,31.2,06.4,0000.0,0005.00,0001.37,0000.92
2022-10-20 22:38:00,,0822.6,4.98,0.00,29.5,27.9,00.0,38.2,31.3,06.3,0000.0,0004.83,0001.39,0000.92
2022-10-20 22:39:00,,0822.6,4.99,0.00,29.5,28.1,00.0,38.2,31.3,06.2,0000.0,0004.81,0001.43,0000.92
2022-10-20 22:40:00,,0822.6,5.00,0.00,29.5,28.3,00.0,38.2,31.4,06.3,0000.0,0004.58,0001.37,0000.91
2022-10-20 22:41:00,,0822.6,5.03,0.00,29.6,28.4,00.0,38.2,31.5,06.2,0000.0,0004.72,0001.31,0000.90
2022-10-20 22:42:00,,0822.6,5.01,0.00,29.6,28.6,00.0,38.3,31.6,06.3,0000.0,0004.77,0001.31,0000.89
2022-10-20 22:43:00,,0822.6,4.99,0.00,29.7,28.2,00.0,38.3,31.6,06.1,0000.0,0004.42,0001.30,0000.88
2022-10-20 22:44:00,,0822.6,4.98,0.00,29.6,26.7,00.0,38.3,31.4,06.2,0000.0,0004.35,0001.27,0000.87
2022-10-20 22:45:00,,0822.6,4.98,0.00,29.6,26.1,00.0,38.2,31.3,06.2,0000.0,0004.21,0001.25,0000.87
2022-10-20 22:46:00,,0822.6,5.01,0.00,29.5,26.3,00.0,38.2,31.2,06.3,0000.0,0003.06,0001.27,0000.87
2022-10-20 22:47:00,,0822.6,5.02,0.00,29.5,26.6,00.0,38.2,31.1,06.4,0000.0,0004.44,0001.29,0000.87
2022-10-20 22:48:00,,0822.6,5.01,0.00,29.4,26.9,00.0,38.2,31.1,06.4,0000.0,0004.52,0001.29,0000.86
2022-10-20 22:49:00,,0822.6,4.97,0.00,29.4,27.2,00.0,38.2,31.1,06.5,0000.0,0004.70,0001.28,0000.86
2022-10-20 22:50:00,,0822.6,5.03,0.00,29.4,27.5,00.0,38.2,31.2,06.5,0000.0,0004.77,0001.26,0000.87
2022-10-20 22:51:00,,0822.6,4.98,0.00,29.4,27.8,00.0,38.2,31.3,06.5,0000.0,0004.84,0001.25,0000.87
2022-10-20 22:52:00,,0822.6,5.04,0.00,29.5,28.0,00.0,38.2,31.4,06.5,0000.0,0004.56,0001.25,0000.87
2022-10-20 22:53:00,,0822.6,5.00,0.00,29.5,28.1,00.0,38.2,31.4,06.5,0000.0,0004.63,0001.28,0000.87
2022-10-20 22:54:00,,0822.6,5.01,0.00,29.6,28.3,00.0,38.2,31.4,06.4,0000.0,0004.42,0001.27,0000.88
2022-10-20 22:55:00,,0822.6,5.01,0.00,29.6,28.4,00.0,38.3,31.5,06.3,0000.0,0004.30,0001.27,0000.88
2022-10-20 22:56:00,,0822.6,5.01,0.00,29.6,28.5,00.0,38.3,31.6,06.3,0000.0,0004.30,0001.28,0000.89
2022-10-20 22:57:00,,0822.6,5.01,0.00,29.7,27.9,00.0,38.3,31.6,06.3,0000.0,0004.23,0001.30,0000.89
2022-10-20 22:58:00,,0822.7,4.99,0.00,29.6,26.5,00.0,38.3,31.4,06.3,0000.0,0002.85,0001.29,0000.89
2022-10-20 22:59:00,,0822.6,5.01,0.00,29.6,25.9,00.0,38.2,31.3,06.3,0000.0,0003.14,0001.30,0000.90
